Weather observations for the past three days for
Luray Caverns
Imperial (Metric)
Date Time (edt) Wind (mph) Vis. (mi.) Weather Sky Cond. Temperature (ºF) Relative Humidity Wind Chill (°F) Heat Index (°F) Pressure Precipitation (in)
Air Dwpt 6 hour altimeter (in) sea level (mb) 1 hr 3 hr 6 hr
Max. Min.
21 11:35 E 6 10.00 NULL NULL 89.6 60.8 38% 90 30.07 0.0
21 11:15 NE 3 10.00 NULL NULL 89.6 60.8 38% 90 30.08 0.0
21 10:55 E 5 10.00 NULL NULL 87.8 60.8 40% 88 30.08 0.0
21 10:35 Calm 10.00 NULL NULL 87.8 62.6 43% 88 30.08 0.0
21 10:15 NE 3 10.00 NULL NULL 86 62.6 46% 87 30.08 0.0
21 09:55 Calm 10.00 NULL NULL 82.4 64.4 55% 84 30.08 0.0
21 09:35 Calm 10.00 NULL NULL 82.4 66.2 58% 85 30.08 0.0
21 09:15 Calm 10.00 NULL NULL 78.8 68 70% 81 30.09 0.0
21 08:55 S 5 10.00 NULL NULL 77 68 74% 79 30.1 0.0
21 08:35 SW 5 10.00 NULL NULL 75.2 68 78% 76 30.1 0.0
21 08:15 SW 3 10.00 NULL NULL 73.4 68 83% 30.1 0.0
21 07:55 Calm 10.00 NULL NULL 71.6 68 88% 30.09 0.0
21 07:35 Calm 10.00 NULL NULL 69.8 68 94% 30.09 0.0
21 07:15 Calm 10.00 NULL NULL 68 68 100% 30.08 0.0
21 06:35 Calm 5.00 Fog/Mist NULL 64.4 64.4 100% 30.08 0.0
21 06:15 Calm 5.00 Fog/Mist NULL 64.4 64.4 100% 30.08 0.0
21 05:55 Calm 7.00 NULL NULL 64.4 64.4 100% 30.07 0.0
21 05:35 Calm 7.00 NULL NULL 64.4 64.4 100% 30.07 0.0
21 05:15 Calm 5.00 Fog/Mist NULL 64.4 64.4 100% 30.06 0.0
21 04:55 Calm 7.00 NULL NULL 66.2 64.4 94% 30.06 0.0
21 04:35 Calm 10.00 NULL NULL 68 66.2 94% 30.06 0.0
21 04:15 Calm 10.00 NULL NULL 66.2 66.2 100% 30.06 0.0
21 03:55 Calm 10.00 NULL NULL 66.2 66.2 100% 30.05 0.0
21 03:35 Calm 10.00 NULL NULL 64.4 64.4 100% 30.05 0.0
21 03:15 Calm 10.00 NULL NULL 66.2 64.4 94% 30.05 0.0
21 02:55 Calm 10.00 NULL NULL 66.2 64.4 94% 30.05 0.0
21 02:35 Calm 10.00 NULL NULL 66.2 64.4 94% 30.05 0.0
21 02:15 Calm 10.00 NULL NULL 66.2 64.4 94% 30.06 0.0
21 01:55 Calm 10.00 NULL NULL 68 64.4 88% 30.06 0.0
21 01:35 Calm 10.00 NULL NULL 68 64.4 88% 30.06 0.0
21 01:15 Calm 10.00 NULL NULL 69.8 66.2 88% 30.06 0.0
21 00:55 Calm 10.00 NULL NULL 69.8 66.2 88% 30.06 0.0
21 00:35 Calm 10.00 NULL NULL 69.8 68 94% 30.06 0.0
20 23:55 Calm 10.00 NULL NULL 69.8 68 94% 30.06 0.0
20 23:35 Calm 10.00 NULL NULL 71.6 68 88% 30.07 0.0
20 23:15 Calm 10.00 NULL NULL 71.6 68 88% 30.06 0.0
20 22:55 S 3 10.00 NULL NULL 73.4 68 83% 30.07 0.0
20 22:35 Calm 10.00 NULL NULL 71.6 68 88% 30.07 0.0
20 22:15 Calm 10.00 NULL NULL 73.4 68 83% 30.07 0.0
20 21:55 Calm 10.00 NULL NULL 73.4 68 83% 30.07 0.0
20 21:35 Calm 10.00 NULL NULL 73.4 68 83% 30.07 0.0
20 21:15 Calm 10.00 NULL NULL 73.4 68 83% 30.07 0.0
20 20:55 Calm 10.00 NULL NULL 75.2 68 78% 76 30.06 0.0
20 20:35 Calm 10.00 NULL NULL 77 68 74% 79 30.06 0.0
20 20:15 Calm 10.00 NULL NULL 77 68 74% 79 30.07 0.0
20 19:55 N 3 10.00 NULL NULL 77 68 74% 79 30.07 0.0
20 19:35 Calm 10.00 NULL NULL 78.8 68 70% 81 30.06 0.0
20 19:15 Calm 10.00 NULL NULL 78.8 68 70% 81 30.06 0.0
20 18:55 Calm 10.00 NULL NULL 80.6 68 66% 83 30.05 0.0
20 18:35 Calm 10.00 NULL NULL 80.6 68 66% 83 30.04 0.0
20 18:15 Calm 10.00 NULL NULL 82.4 66.2 58% 85 30.04 0.0
20 17:55 Calm 10.00 NULL NULL 84.2 66.2 55% 87 30.04 0.0
20 17:35 S 3 10.00 NULL NULL 86 68 55% 89 30.05 0.0
20 17:15 Calm 10.00 NULL NULL 86 68 55% 89 30.06 0.0
20 16:55 Calm 10.00 NULL NULL 84.2 68 58% 87 30.07 0.0
20 16:35 Calm 10.00 NULL NULL 82.4 69.8 66% 86 30.06 0.0
20 16:15 Calm 10.00 NULL NULL 80.6 69.8 70% 84 30.06 0.0
20 15:55 Calm 10.00 Light Drizzle NULL 78.8 69.8 74% 81 30.07 0.0
20 15:35 SW 3 10.00 Light Drizzle NULL 77 71.6 83% 78 30.08 0.0
20 15:15 SW 3 10.00 Light Rain NULL 77 71.6 83% 78 30.09 0.0
20 14:55 SW 3 10.00 Light Rain NULL 75.2 71.6 89% 75 30.1 0.0
20 14:35 SW 3 10.00 Light Rain NULL 75.2 69.8 83% 75 30.1 0.0
20 14:15 SW 3 10.00 Light Rain NULL 75.2 69.8 83% 75 30.11 0.0
20 13:55 SW 3 10.00 Light Rain NULL 75.2 69.8 83% 75 30.11 0.0 0.01
20 13:35 SW 5 10.00 Light Rain NULL 77 71.6 83% 78 30.12 0.0
20 13:15 SW 6 10.00 Light Rain NULL 77 69.8 79% 79 30.11 0.0
20 12:55 SW 5 10.00 Light Rain NULL 78.8 69.8 74% 81 30.11 0.0
20 12:35 SW 6 10.00 Light Rain NULL 78.8 69.8 74% 81 30.11 0.0
20 12:15 SW 6 10.00 Light Rain NULL 78.8 69.8 74% 81 30.11 0.0
20 11:55 SW 5 10.00 NULL NULL 80.6 68 66% 83 30.11 0.0
20 11:35 SW 5 10.00 NULL NULL 80.6 66.2 62% 83 30.11 0.0
20 11:15 Calm 10.00 NULL NULL 80.6 66.2 62% 83 30.12 0.0
20 10:55 SW 5 10.00 NULL NULL 82.4 66.2 58% 85 30.12 0.0
20 10:35 S 3 10.00 NULL NULL 82.4 68 62% 85 30.12 0.0
20 10:15 Calm 10.00 NULL NULL 80.6 68 66% 83 30.12 0.0
20 09:55 Calm 10.00 NULL NULL 78.8 68 70% 81 30.13 0.0
20 09:35 Calm 10.00 NULL NULL 78.8 68 70% 81 30.12 0.0
20 09:15 Calm 10.00 NULL NULL 77 68 74% 79 30.12 0.0
20 08:55 Calm 10.00 NULL NULL 73.4 68 83% 30.13 0.0
20 08:35 Calm 10.00 NULL NULL 71.6 68 88% 30.13 0.0
20 08:15 Calm 10.00 NULL NULL 71.6 68 88% 30.13 0.0
20 07:55 Calm 10.00 NULL NULL 71.6 68 88% 30.13 0.0
20 07:35 Calm 10.00 NULL NULL 69.8 68 94% 30.13 0.0
20 07:15 Calm 10.00 NULL NULL 69.8 68 94% 30.13 0.0
20 06:55 Calm 10.00 NULL NULL 68 68 100% 30.12 0.0
20 06:35 Calm 10.00 NULL NULL 68 66.2 94% 30.12 0.0
20 06:15 Calm 10.00 NULL NULL 68 64.4 88% 30.12 0.0
20 05:55 Calm 10.00 NULL NULL 68 64.4 88% 30.12 0.0
20 05:35 Calm 10.00 NULL NULL 68 66.2 94% 30.12 0.0
20 05:15 Calm 10.00 NULL NULL 69.8 66.2 88% 30.12 0.0
20 04:55 Calm 10.00 NULL NULL 69.8 66.2 88% 30.12 0.0
20 04:35 Calm 10.00 NULL NULL 69.8 66.2 88% 30.12 0.0
20 04:15 Calm 10.00 NULL NULL 69.8 66.2 88% 30.12 0.0
20 03:55 Calm 10.00 NULL NULL 69.8 66.2 88% 30.12 0.0
20 03:35 Calm 10.00 NULL NULL 69.8 66.2 88% 30.12 0.0
20 03:15 Calm 10.00 NULL NULL 71.6 66.2 83% 30.12 0.0
20 02:55 Calm 10.00 NULL NULL 71.6 68 88% 30.12 0.0
20 02:35 Calm 10.00 NULL NULL 71.6 68 88% 30.12 0.0
20 02:15 SW 3 10.00 NULL NULL 73.4 68 83% 30.12 0.0
20 01:55 Calm 10.00 NULL NULL 71.6 66.2 83% 30.13 0.0
20 01:35 Calm 10.00 NULL NULL 73.4 66.2 78% 30.13 0.0
20 01:15 Calm 10.00 NULL NULL 73.4 64.4 74% 30.13 0.0
20 00:55 Calm 10.00 NULL NULL 73.4 64.4 74% 30.13 0.0
20 00:35 Calm 10.00 NULL NULL 75.2 66.2 74% 77 30.14 0.0
20 00:15 Calm 10.00 NULL NULL 75.2 66.2 74% 77 30.14 0.0
19 23:55 Calm 10.00 NULL NULL 75.2 66.2 74% 77 30.13 0.0
19 23:35 Calm 10.00 NULL NULL 77 66.2 69% 79 30.13 0.0
19 23:15 Calm 10.00 NULL NULL 77 66.2 69% 79 30.13 0.0
19 22:55 Calm 10.00 NULL NULL 77 64.4 65% 79 30.13 0.0
19 22:35 Calm 10.00 NULL NULL 78.8 64.4 61% 81 30.13 0.0
19 22:15 S 6 10.00 NULL NULL 78.8 64.4 61% 81 30.13 0.0
19 21:55 Calm 10.00 NULL NULL 78.8 64.4 61% 81 30.13 0.0
19 21:35 S 5 10.00 NULL NULL 78.8 64.4 61% 81 30.12 0.0
19 21:15 Calm 10.00 NULL NULL 78.8 64.4 61% 81 30.11 0.0
19 20:55 Calm 10.00 NULL NULL 78.8 64.4 61% 81 30.11 0.0
19 20:35 E 3 10.00 NULL NULL 78.8 64.4 61% 81 30.11 0.0
19 20:15 Calm 10.00 NULL NULL 78.8 64.4 61% 81 30.1 0.0
19 19:55 Calm 10.00 NULL NULL 80.6 64.4 58% 82 30.1 0.0
19 19:35 Calm 10.00 NULL NULL 82.4 64.4 55% 84 30.09 0.0
19 19:15 Calm 10.00 NULL NULL 82.4 64.4 55% 84 30.09 0.0
19 18:55 SE 5 10.00 NULL NULL 82.4 64.4 55% 84 30.08 0.0
19 18:35 SE 5 10.00 NULL NULL 86 64.4 49% 87 30.08 0.0
19 18:15 E 5 10.00 NULL NULL 84.2 64.4 51% 86 30.07 0.0
19 17:55 E 5 10.00 NULL NULL 86 64.4 49% 87 30.07 0.0
19 17:35 E 7 10.00 NULL NULL 86 64.4 49% 87 30.07 0.0
19 17:15 Calm 10.00 NULL NULL 87.8 62.6 43% 88 30.08 0.0
19 16:55 Calm 10.00 NULL NULL 91.4 62.6 38% 92 30.08 0.0
19 16:35 Calm 10.00 NULL NULL 91.4 62.6 38% 92 30.09 0.0
19 16:15 E 5 10.00 NULL NULL 87.8 62.6 43% 88 30.1 0.0
19 15:55 SE 3 10.00 NULL NULL 91.4 62.6 38% 92 30.1 0.0
19 15:35 Calm 10.00 NULL NULL 89.6 60.8 38% 90 30.11 0.0
19 15:15 E 6 10.00 NULL NULL 89.6 60.8 38% 90 30.12 0.0
19 14:55 E 6 10.00 NULL NULL 87.8 60.8 40% 88 30.13 0.0
19 14:35 Calm 10.00 NULL NULL 82.4 62.6 51% 83 30.13 0.0
19 14:15 NE 6 10.00 NULL NULL 84.2 60.8 45% 84 30.14 0.0
19 13:55 NE 7 10.00 NULL NULL 86 60.8 43% 86 30.14 0.0
19 13:35 NE 5 10.00 NULL NULL 87.8 60.8 40% 88 30.15 0.0
19 13:15 E 3 10.00 NULL NULL 87.8 60.8 40% 88 30.15 0.0
19 12:55 Calm 10.00 NULL NULL 86 60.8 43% 86 30.16 0.0
19 12:35 NE 3 10.00 NULL NULL 84.2 60.8 45% 84 30.16 0.0
19 12:15 NE 3 10.00 NULL NULL 82.4 60.8 48% 83 30.16 0.0
19 11:55 N 5 10.00 NULL NULL 82.4 59 45% 82 30.16 0.0
19 11:15 NE 6 10.00 NULL NULL 80.6 59 48% 81 30.16 0.0
19 10:55 NE 3 10.00 NULL NULL 78.8 59 51% 80 30.17 0.0
19 10:35 NE 5 10.00 NULL NULL 77 59 54% 79 30.17 0.0
19 10:15 NE 7 10.00 NULL NULL 77 59 54% 79 30.17 0.0
19 09:55 NE 3 10.00 NULL NULL 73.4 59 61% 30.17 0.0
19 09:35 NE 6 10.00 NULL NULL 71.6 57.2 61% 30.17 0.0
19 09:15 NE 7 10.00 NULL NULL 71.6 57.2 61% 30.17 0.0
19 08:55 NE 8 10.00 NULL NULL 71.6 57.2 61% 30.16 0.0
19 08:35 NE 7 10.00 NULL NULL 69.8 57.2 64% 30.16 0.0
19 08:15 N 7 10.00 NULL NULL 69.8 57.2 64% 30.16 0.0
19 07:55 N 5 10.00 NULL NULL 69.8 59 69% 30.16 0.0
19 07:35 NE 3 10.00 NULL NULL 68 59 73% 30.15 0.0
19 07:15 N 5 10.00 NULL NULL 68 59 73% 30.14 0.0
19 06:55 N 6 10.00 NULL NULL 68 59 73% 30.14 0.0
19 06:35 N 6 10.00 NULL NULL 68 59 73% 30.13 0.0
19 06:15 N 3 10.00 NULL NULL 66.2 59 78% 30.12 0.0
19 05:55 N 3 10.00 NULL NULL 66.2 59 78% 30.11 0.0
19 05:35 N 6 10.00 NULL NULL 68 59 73% 30.1 0.0
19 05:15 N 5 10.00 NULL NULL 66.2 60.8 83% 30.1 0.0
19 04:55 Calm 10.00 NULL NULL 66.2 64.4 94% 30.1 0.0
19 04:15 Calm 10.00 NULL NULL 68 64.4 88% 30.08 0.0
19 03:55 Calm 10.00 NULL NULL 68 64.4 88% 30.08 0.0
19 03:35 Calm 10.00 NULL NULL 68 64.4 88% 30.08 0.0
19 03:15 Calm 10.00 NULL NULL 69.8 66.2 88% 30.08 0.0
19 02:55 Calm 10.00 NULL NULL 69.8 66.2 88% 30.08 0.0
19 02:35 Calm 10.00 NULL NULL 69.8 66.2 88% 30.08 0.0
19 02:15 Calm 7.00 NULL NULL 69.8 66.2 88% 30.07 0.0
19 01:55 N 3 10.00 Light Drizzle NULL 69.8 64.4 83% 30.07 0.0
19 01:35 NW 6 10.00 NULL NULL 69.8 68 94% 30.07 0.0
19 01:15 Calm 10.00 NULL NULL 69.8 68 94% 30.07 0.0
19 00:55 Calm 10.00 NULL NULL 69.8 68 94% 30.08 0.0
19 00:35 Calm 10.00 NULL NULL 69.8 68 94% 30.07 0.0
19 00:15 Calm 10.00 NULL NULL 69.8 68 94% 30.06 0.0
18 23:55 Calm 10.00 NULL NULL 69.8 68 94% 30.06 0.0 0.03
18 23:35 Calm 10.00 NULL NULL 69.8 68 94% 30.05 0.0 0.03
18 23:15 SE 5 7.00 Rain NULL 71.6 68 88% 30.05 0.0 0.02
18 22:55 Calm 10.00 NULL NULL 71.6 64.4 78% 30.05 0.0
18 22:35 Calm 10.00 NULL NULL 69.8 66.2 88% 30.05 0.0
18 22:15 Calm 10.00 NULL NULL 71.6 64.4 78% 30.04 0.0
18 21:55 Calm 10.00 NULL NULL 69.8 64.4 83% 30.03 0.0
18 21:35 Calm 10.00 NULL NULL 71.6 64.4 78% 30.03 0.0
18 21:15 Calm 10.00 NULL NULL 73.4 64.4 74% 30.03 0.0
18 20:55 Calm 10.00 NULL NULL 73.4 64.4 74% 30.02 0.0
18 20:35 E 3 10.00 NULL NULL 77 64.4 65% 79 30.01 0.0
18 20:15 Calm 10.00 NULL NULL 78.8 64.4 61% 81 30 0.0
18 19:55 Calm 10.00 NULL NULL 78.8 64.4 61% 81 29.99 0.0
18 19:35 Calm 10.00 NULL NULL 80.6 64.4 58% 82 29.99 0.0
18 19:15 N 3 10.00 NULL NULL 80.6 62.6 54% 82 29.98 0.0
18 18:55 Calm 10.00 NULL NULL 80.6 60.8 51% 81 29.98 0.0
18 18:35 Calm 10.00 NULL NULL 80.6 60.8 51% 81 29.97 0.0
18 18:15 Calm 10.00 NULL NULL 82.4 60.8 48% 83 29.97 0.0
18 17:55 Calm 10.00 NULL NULL 82.4 60.8 48% 83 29.97 0.0
18 17:35 Calm 10.00 NULL NULL 82.4 60.8 48% 83 29.97 0.0
18 17:15 NE 3 10.00 NULL NULL 82.4 59 45% 82 29.97 0.0
18 16:55 N 5 10.00 NULL NULL 86 59 40% 85 29.97 0.0
18 16:35 N 7 10.00 NULL NULL 86 59 40% 85 29.97 0.0
18 16:15 NE 5 10.00 NULL NULL 80.6 60.8 51% 81 29.97 0.0
18 15:55 NE 5 10.00 NULL NULL 80.6 60.8 51% 81 29.98 0.0
18 15:35 Calm 10.00 NULL NULL 80.6 60.8 51% 81 29.99 0.0
18 15:15 NE 3 10.00 NULL NULL 82.4 60.8 48% 83 29.99 0.0
18 14:55 NE 5 10.00 NULL NULL 82.4 60.8 48% 83 29.99 0.0
18 14:35 NE 7 10.00 NULL NULL 82.4 60.8 48% 83 30 0.0
18 14:15 N 7 10.00 NULL NULL 82.4 60.8 48% 83 30 0.0
18 13:55 N 6 10.00 NULL NULL 82.4 60.8 48% 83 30.01 0.0
18 13:35 NE 3 10.00 Light Rain NULL 80.6 62.6 54% 82 30.01 0.0
18 13:15 NE 6 10.00 NULL NULL 80.6 60.8 51% 81 30.01 0.0
18 12:55 N 6 10.00 NULL NULL 80.6 59 48% 81 30.01 0.0
18 12:35 N 6 10.00 NULL NULL 80.6 60.8 51% 81 30.01 0.0
18 12:15 N 6 10.00 NULL NULL 80.6 62.6 54% 82 30.01 0.0
18 11:55 N 5 10.00 NULL NULL 78.8 66.2 65% 81 30.01 0.0
Date Time (edt) Wind (mph) Vis. (mi.) Weather Sky Cond. Air Dwpt Max. Min. Relative Humidity Wind Chill (°F) Heat Index (°F) altimeter (in) sea level (mb) 1 hr 3 hr 6 hr
6 hour
Temperature (ºF) Pressure Precipitation (in)